Location: Malcolm X Square
(37.7810°N, 122.4297°W)
Time: 22:57:44
(UTC+00:00)

Cosmos 1452 Rocket - Pass Details

Date: 13 April 2024
Orbit: 766 x 772 km, 74.1° (Epoch: 21 May)

Event Time Altitude Azimuth Distance (km) Brightness Sun altitude
Rises 13:02:44 0° 345° (NNW) 3,247 6.8 -7.3°
Reaches altitude 10° 13:05:09 10° 349° (NNW) 2,316 6.1 -6.8°
Maximum altitude 13:10:21 62° 70° (ENE) 860 4.2 -5.8°
Drops below altitude 10° 13:15:31 10° 151° (SSE) 2,297 6.2 -4.8°
Sets 13:17:54 0° 155° (SSE) 3,219 6.9 -4.4°
